• In Netherlands
  • List of Countries
  • For 7 days
  • Water Temperature
  • Satellite Maps
  • Weather Map
  • Weather Widgets
  • user-avatar
    Login

    Hourly Weather Darwin

    Today, 18 November, Saturday

    Time Temperature Precipitation Wind Pressure Humidity
    00:00 +30°C° 0 mm 3 mps 756 mmHg 73%
    01:00 +30°C° 0 mm 2 mps 756 mmHg 74%
    02:00 +30°C° 0 mm 2 mps 756 mmHg 75%
    03:00 +30°C° 0 mm 2 mps 755 mmHg 76%
    04:00 +29°C° 0.1 mm 2 mps 755 mmHg 77%
    05:00 +29°C° 0.1 mm 3 mps 756 mmHg 78%
    06:00 +29°C° 0.1 mm 3 mps 756 mmHg 79%
    07:00 +31°C° 0.8 mm 3 mps 756 mmHg 72%
    08:00 +33°C° 0.8 mm 3 mps 756 mmHg 64%
    09:00 +35°C° 0.8 mm 3 mps 756 mmHg 56%
    10:00 +36°C° 0 mm 4 mps 756 mmHg 50%
    11:00 +38°C° 0 mm 4 mps 756 mmHg 45%
    12:00 +41°C° 0 mm 4 mps 755 mmHg 39%
    13:00 +40°C° 0 mm 4 mps 755 mmHg 40%
    14:00 +40°C° 0 mm 4 mps 754 mmHg 41%
    15:00 +40°C° 0 mm 4 mps 754 mmHg 42%
    16:00 +38°C° 0.1 mm 4 mps 754 mmHg 46%
    17:00 +36°C° 0.1 mm 5 mps 754 mmHg 51%
    18:00 +35°C° 0.1 mm 5 mps 754 mmHg 55%
    19:00 +34°C° 1.3 mm 4 mps 755 mmHg 62%
    20:00 +33°C° 1.3 mm 4 mps 755 mmHg 68%
    21:00 +32°C° 1.3 mm 4 mps 756 mmHg 74%
    22:00 +31°C° 1.3 mm 3 mps 756 mmHg 75%
    23:00 +30°C° 1.3 mm 3 mps 756 mmHg 77%

    Tomorrow, 19 November, Sunday

    Time Temperature Precipitation Wind Pressure Humidity
    00:00 +30°C° 1.3 mm 2 mps 756 mmHg 78%
    01:00 +30°C° 1.5 mm 2 mps 756 mmHg 79%
    02:00 +30°C° 1.5 mm 2 mps 756 mmHg 80%
    03:00 +29°C° 1.5 mm 1 mps 755 mmHg 82%
    04:00 +29°C° 0.2 mm 1 mps 755 mmHg 82%
    05:00 +29°C° 0.2 mm 1 mps 756 mmHg 82%
    06:00 +29°C° 0.2 mm 1 mps 756 mmHg 81%
    07:00 +31°C° 0 mm 1 mps 756 mmHg 75%
    08:00 +32°C° 0 mm 1 mps 757 mmHg 69%
    09:00 +33°C° 0 mm 1 mps 757 mmHg 62%
    10:00 +35°C° 0 mm 1 mps 757 mmHg 56%
    11:00 +36°C° 0 mm 1 mps 756 mmHg 51%
    12:00 +38°C° 0 mm 2 mps 756 mmHg 45%
    13:00 +38°C° 0.1 mm 2 mps 755 mmHg 47%
    14:00 +37°C° 0.1 mm 2 mps 755 mmHg 48%
    15:00 +37°C° 0.1 mm 3 mps 754 mmHg 49%
    16:00 +36°C° 0 mm 3 mps 754 mmHg 52%
    17:00 +35°C° 0 mm 3 mps 754 mmHg 55%
    18:00 +35°C° 0 mm 3 mps 755 mmHg 58%
    19:00 +34°C° 0.2 mm 3 mps 755 mmHg 63%
    20:00 +33°C° 0.2 mm 3 mps 756 mmHg 69%
    21:00 +31°C° 0.2 mm 3 mps 756 mmHg 74%
    22:00 +31°C° 0 mm 2 mps 756 mmHg 75%
    23:00 +31°C° 0 mm 2 mps 757 mmHg 76%

    Day after tomorrow, 20 November, Monday

    Time Temperature Precipitation Wind Pressure Humidity
    00:00 +30°C° 0 mm 2 mps 757 mmHg 77%
    01:00 +30°C° 0 mm 1 mps 756 mmHg 78%
    02:00 +30°C° 0 mm 1 mps 756 mmHg 79%
    03:00 +30°C° 0 mm 1 mps 756 mmHg 80%
    04:00 +30°C° 0 mm 1 mps 756 mmHg 80%
    05:00 +29°C° 0 mm 1 mps 756 mmHg 81%
    06:00 +29°C° 0 mm 1 mps 756 mmHg 81%
    07:00 +31°C° 0 mm 1 mps 756 mmHg 73%
    08:00 +33°C° 0 mm 1 mps 757 mmHg 65%
    09:00 +35°C° 0 mm 1 mps 757 mmHg 57%
    10:00 +37°C° 0 mm 2 mps 757 mmHg 52%
    11:00 +38°C° 0 mm 2 mps 756 mmHg 48%
    12:00 +40°C° 0 mm 3 mps 756 mmHg 43%
    13:00 +39°C° 0.1 mm 3 mps 755 mmHg 44%
    14:00 +38°C° 0.1 mm 4 mps 755 mmHg 46%
    15:00 +38°C° 0.1 mm 4 mps 754 mmHg 47%
    16:00 +37°C° 0.3 mm 4 mps 754 mmHg 52%
    17:00 +35°C° 0.3 mm 4 mps 754 mmHg 57%
    18:00 +34°C° 0.3 mm 4 mps 755 mmHg 62%
    19:00 +33°C° 0.9 mm 3 mps 755 mmHg 67%
    20:00 +31°C° 0.9 mm 3 mps 756 mmHg 73%
    21:00 +30°C° 0.9 mm 3 mps 756 mmHg 78%
    22:00 +30°C° 0.5 mm 3 mps 756 mmHg 78%
    23:00 +30°C° 0.5 mm 2 mps 756 mmHg 79%

    21 November, Tuesday

    Time Temperature Precipitation Wind Pressure Humidity
    00:00 +30°C° 0.5 mm 2 mps 756 mmHg 79%
    01:00 +30°C° 0 mm 2 mps 756 mmHg 79%
    02:00 +30°C° 0 mm 2 mps 755 mmHg 80%
    03:00 +30°C° 0 mm 2 mps 755 mmHg 80%
    04:00 +30°C° 0.2 mm 2 mps 755 mmHg 80%
    05:00 +29°C° 0.2 mm 2 mps 755 mmHg 81%
    06:00 +29°C° 0.2 mm 2 mps 756 mmHg 81%
    07:00 +31°C° 0.3 mm 2 mps 756 mmHg 74%
    08:00 +32°C° 0.3 mm 2 mps 756 mmHg 66%
    09:00 +34°C° 0.3 mm 1 mps 757 mmHg 59%
    10:00 +36°C° 0 mm 2 mps 756 mmHg 53%
    11:00 +38°C° 0 mm 2 mps 756 mmHg 48%
    12:00 +39°C° 0 mm 2 mps 755 mmHg 43%
    13:00 +39°C° 0 mm 3 mps 754 mmHg 43%
    14:00 +39°C° 0 mm 3 mps 754 mmHg 44%
    15:00 +38°C° 0 mm 4 mps 753 mmHg 45%
    16:00 +37°C° 0 mm 4 mps 753 mmHg 48%
    17:00 +36°C° 0 mm 4 mps 753 mmHg 52%
    18:00 +35°C° 0 mm 4 mps 753 mmHg 55%
    19:00 +34°C° 0.3 mm 4 mps 754 mmHg 60%
    20:00 +33°C° 0.3 mm 4 mps 754 mmHg 65%
    21:00 +31°C° 0.3 mm 3 mps 755 mmHg 70%
    22:00 +30°C° 1 mm 3 mps 755 mmHg 74%
    23:00 +30°C° 1 mm 2 mps 755 mmHg 78%

    22 November, Wednesday

    Time Temperature Precipitation Wind Pressure Humidity
    00:00 +29°C° 1 mm 2 mps 755 mmHg 82%
    01:00 +29°C° 0.1 mm 2 mps 754 mmHg 83%
    02:00 +29°C° 0.1 mm 2 mps 754 mmHg 83%
    03:00 +29°C° 0.1 mm 2 mps 753 mmHg 83%
    04:00 +29°C° 1.3 mm 2 mps 754 mmHg 85%
    05:00 +29°C° 1.3 mm 2 mps 754 mmHg 86%
    06:00 +29°C° 1.3 mm 2 mps 755 mmHg 88%
    07:00 +29°C° 1.7 mm 2 mps 755 mmHg 87%
    08:00 +29°C° 1.7 mm 1 mps 755 mmHg 87%
    09:00 +29°C° 1.7 mm 1 mps 756 mmHg 87%
    10:00 +30°C° 0.3 mm 1 mps 755 mmHg 81%
    11:00 +31°C° 0.3 mm 2 mps 755 mmHg 75%
    12:00 +32°C° 0.3 mm 2 mps 754 mmHg 69%
    13:00 +34°C° 0.1 mm 3 mps 754 mmHg 65%
    14:00 +35°C° 0.1 mm 3 mps 753 mmHg 61%
    15:00 +36°C° 0.1 mm 3 mps 753 mmHg 58%
    16:00 +35°C° 0 mm 3 mps 753 mmHg 61%
    17:00 +34°C° 0 mm 3 mps 753 mmHg 65%
    18:00 +33°C° 0 mm 3 mps 753 mmHg 68%
    19:00 +33°C° 0 mm 3 mps 753 mmHg 71%
    20:00 +31°C° 0 mm 3 mps 753 mmHg 73%
    21:00 +31°C° 0 mm 3 mps 753 mmHg 76%
    22:00 +30°C° 0 mm 3 mps 754 mmHg 77%
    23:00 +30°C° 0 mm 3 mps 754 mmHg 78%

    23 November, Thursday

    Time Temperature Precipitation Wind Pressure Humidity
    00:00 +30°C° 0 mm 3 mps 754 mmHg 79%
    01:00 +30°C° 0.5 mm 3 mps 754 mmHg 81%
    02:00 +29°C° 0.5 mm 2 mps 754 mmHg 84%
    03:00 +29°C° 0.5 mm 2 mps 753 mmHg 87%
    04:00 +29°C° 0 mm 2 mps 754 mmHg 86%
    05:00 +29°C° 0 mm 3 mps 754 mmHg 85%
    06:00 +29°C° 0 mm 3 mps 754 mmHg 85%
    07:00 +32°C° 0 mm 4 mps 754 mmHg 79%
    08:00 +33°C° 0 mm 4 mps 755 mmHg 74%
    09:00 +35°C° 0 mm 5 mps 755 mmHg 68%
    10:00 +35°C° 0 mm 5 mps 754 mmHg 65%
    11:00 +36°C° 0 mm 5 mps 754 mmHg 62%
    12:00 +37°C° 0 mm 5 mps 754 mmHg 59%
    13:00 +37°C° 0.2 mm 5 mps 753 mmHg 59%
    14:00 +37°C° 0.2 mm 5 mps 753 mmHg 59%
    15:00 +37°C° 0.2 mm 5 mps 752 mmHg 58%
    16:00 +36°C° 0.5 mm 5 mps 753 mmHg 64%
    17:00 +35°C° 0.5 mm 5 mps 753 mmHg 69%
    18:00 +33°C° 0.5 mm 4 mps 753 mmHg 74%
    19:00 +33°C° 1.2 mm 4 mps 754 mmHg 78%
    20:00 +32°C° 1.2 mm 4 mps 754 mmHg 81%
    21:00 +30°C° 1.2 mm 3 mps 755 mmHg 84%
    22:00 +30°C° 0 mm 4 mps 754 mmHg 84%
    23:00 +30°C° 0 mm 4 mps 754 mmHg 85%
    Show more